Regional Weather Roundup
Issued by NWS

Home | Current Version | Previous Version | Text Only | Print | Product List | Glossary Off
Versions: 1 2 3 4 5 6 7 8 9 10 11 12 13 14 15 16 17 18 19 20 21 22 23 24 25 26 27 28 29 30 31 32 33 34 35 36 37 38 39 40 41 42 43 44 45 46 47 48 49 50

000
ASUS45 KPSR 220110
RWRAZ

ARIZONA HOURLY REGIONAL WEATHER ROUNDUP
NATIONAL WEATHER SERVICE PHOENIX AZ
600 PM MST SAT JAN 21 2017

NOTE: FAIR INDICATES FEW OR NO CLOUDS BELOW 12,000 FEET WITH NO
SIGNIFICANT WEATHER AND/OR OBSTRUCTIONS TO VISIBILITY.

AZZ001>003-036-220200-
NORTHWEST ARIZONA

CITY           SKY/WX    TMP DP  RH WIND       PRES   REMARKS
BULLHEAD CITY  PTCLDY    61  34  36 SE8       29.90R
KINGMAN        PTCLDY    45  25  45 SW15      29.91R
$$

AZZ004>008-015-016-018-220200-
NORTH CENTRAL ARIZONA

CITY           SKY/WX    TMP DP  RH WIND       PRES   REMARKS
GRAND CANYON   MOCLDY    29  24  82 SW9       29.86R WCI  20
WILLIAMS       PTCLDY    28  23  80 W7G14     29.89R WCI  21
PRESCOTT       PTCLDY    35  29  78 SW14      29.90R WCI  26
FLAGSTAFF      MOCLDY    27  20  75 W6        29.87R WCI  20
PAYSON         MOCLDY    36  32  87 SW3       29.92R
PAGE           PTCLDY    43  19  38 W9G18     29.80R
$$

AZZ009>014-017-220200-
NORTHEAST ARIZONA

CITY           SKY/WX    TMP DP  RH WIND       PRES   REMARKS
WINSLOW        PTCLDY    38  23  55 W20G30    29.85R WCI  28
SAINT JOHNS    PTCLDY    35  24  64 W20G29    29.80R WCI  24
SHOW LOW       PTCLDY    27  23  86 SW12      29.86R WCI  16
$$

AZZ023-220200-
GREATER PHOENIX AREA

CITY           SKY/WX    TMP DP  RH WIND       PRES   REMARKS
PHOENIX        PTCLDY    56  33  42 W12       29.92R
BUCKEYE        CLEAR     55  36  47 W9        29.95R
LUKE AFB       FAIR      55  37  50 SW8       29.93R
DEER VALLEY    CLEAR     54  33  45 W14       29.92R
SCOTTSDALE     CLEAR     55  32  41 W3        29.93R
MESA-FALCON    PTCLDY   N/A N/A N/A SW12      29.90R
MESA-GATEWAY   PTCLDY    54  36  50 W12       29.94R
CHANDLER       PTCLDY    55  36  47 W7        29.93R
$$

AZZ027-028-220200-
SOUTHWEST MARICOPA COUNTY AND PINAL COUNTY

CITY           SKY/WX    TMP DP  RH WIND       PRES   REMARKS
CASA GRANDE    CLEAR     53  37  54 SW9       29.95R
GILA BEND      FAIR      56  37  48 SW10      29.95R
$$

AZZ503-504-507>509-220200-
SOUTHEAST ARIZONA

CITY           SKY/WX    TMP DP  RH WIND       PRES   REMARKS
TUCSON         PTCLDY    52  27  38 W9        29.97R
DAVIS-MONTHAN  PTCLDY    51  29  42 W13       29.96R
RYAN FIELD     PTCLDY    54  32  43 W13G18    29.98R
NOGALES        FAIR      46  25  43 W9        29.98R
SIERRA VISTA   PTCLDY    42  24  50 W21G26    29.95R
DOUGLAS        PTCLDY    44  24  45 NW15      29.95R
SAFFORD        PTCLDY    44  32  62 NW9       29.89R
$$

AZZ020-021-025-026-031-220200-
SOUTHWEST ARIZONA

CITY           SKY/WX    TMP DP  RH WIND       PRES   REMARKS
YUMA           CLEAR     59  41  51 W10       29.96R
$$

CAZ031-033-041-043-047-048-061-220200-
SOUTHERN CALIFORNIA

CITY           SKY/WX    TMP DP  RH WIND       PRES   REMARKS
DOWNTOWN L.A.  MOCLDY    57  44  62 CALM      30.00R
L.A. AIRPORT   MOCLDY    56  46  69 SW12      29.99S
SAN DIEGO      MOCLDY    58  43  57 NW5       30.04S
BURBANK        MOCLDY    56  41  57 S6        29.97R
ONTARIO        MOCLDY    54  43  66 SW13      30.00R
RIVERSIDE      MOCLDY    54  43  66 W3        29.99R
PALM SPRINGS   MOCLDY    60  36  40 NW8       29.93S
EL CENTRO NAS  PTCLDY    59  40  49 SW12      29.98R
IMPERIAL       PTCLDY    60  41  49 W10       29.95R
BLYTHE         CLEAR     61  39  44 SW10      29.92R
NEEDLES        PTCLDY    59  34  39 SW7       29.90R
$$

NVZ020-UTZ003-220200-
SOUTHERN NEVADA-UTAH

CITY           SKY/WX    TMP DP  RH WIND       PRES   REMARKS
LAS VEGAS      PTCLDY    53  27  36 SW9       29.86R
SALT LAKE CITY CLOUDY    34  29  82 S5        29.79R WCI  30
$$

NMZ009-TXZ055-220200-
NEW MEXICO-WEST TEXAS

CITY           SKY/WX    TMP DP  RH WIND       PRES   REMARKS
ALBUQUERQUE    PTCLDY    39  20  46 W18G29    29.63R WCI  30
EL PASO        PTCLDY    46  22  38 W44G63    29.74R
$$


........................KEY........................
SKY/WX - SKY CONDITION/WEATHER
TMP    - TEMPERATURE IN FAHRENHEIT
DP     - DEW POINT IN FAHRENHEIT
RH     - RELATIVE HUMIDITY IN PERCENT
WIND   - DIRECTION AND SPEED IN MILES PER HOUR (MPH)
VRB    - VARIABLE WIND DIRECTION
PRES   - MEAN SEA LEVEL PRESSURE IN INCHES OF MERCURY
         F - FALLING PRESSURE   R - RISING PRESSURE
         S - STEADY PRESSURE
VSB    - VISIBILITY IN MILES
HX     - HEAT INDEX IN FAHRENHEIT
WCI    - WIND CHILL INDEX IN FAHRENHEIT
TC     - TEMPERATURE IN CELSIUS WHICH IS ALSO KNOWN AS
         TEMPERATURE IN CENTIGRADE
AFB    - AIR FORCE BASE
         LUKE AFB IS LUKE AIR FORCE BASE
         DAVIS-MONTHAN IS DAVIS-MONTHAN AIR FORCE BASE
NAS    - NAVAL AIR STATION
         EL CENTRO NAS IS EL CENTRO NAVAL AIR STATION
N/A    - NOT AVAILABLE




USA.gov is the U.S. government's official web portal to all federal, state and local government web resources and services.